Location: *
(50.0228°S, 177.2688°W)
Time: 06:32:52
(UTC+00:00)

USA 267 - Pass Details

Date: 07 April 2020
Orbit: 1101 x 1107 km, 123.0° (Epoch: 05 April)

Event Time Altitude Azimuth Distance (km) Brightness Sun altitude
Exits shadow 08:40:09 74° 149° (SSE) 1,161 3.2 -31.5°
Maximum altitude 08:40:13 74° 155° (SSE) 1,161 3.2 -31.5°
Drops below altitude 10° 08:46:50 10° 238° (WSW) 2,997 6.4 -32.4°
Sets 08:49:20 0° 239° (WSW) 3,958 7.3 -32.8°
